Location: B�hl
(48.6968°N, 8.1352°E)
Time: 05:53:24
(UTC+00:00)

COSMOS 2428 - Pass Details

Date: 08 March 2021
Orbit: 846 x 857 km, 70.9° (Epoch: 11 April)

Event Time Altitude Azimuth Distance (km) Brightness Sun altitude
Rises 20:01:29 0° 236° (WSW) 3,399 6.2 -26.4°
Reaches altitude 10° 20:04:08 10° 246° (WSW) 2,469 5.6 -26.8°
Maximum altitude 20:09:17 34° 311° (NW) 1,360 4.2 -27.6°
Drops below altitude 10° 20:14:28 10° 16° (NNE) 2,487 5.3 -28.3°
Sets 20:17:10 0° 25° (NNE) 3,428 5.9 -28.7°
